Location: Newark
(48.1500°N, 13.1167°E)
Time: 03:51:49
(UTC+00:00)

N. Korean satellite - Pass Details

Date: 02 October 2021
Orbit: 450 x 495 km, 97.3° (Epoch: 15 October)

Event Time Altitude Azimuth Distance (km) Brightness Sun altitude
Rises 03:21:56 0° 31° (NNE) 2,552 11.0 -18.4°
Reaches altitude 10° 03:24:51 10° 58° (ENE) 1,676 10.4 -17.9°
Maximum altitude 03:26:48 14° 90° (E) 1,448 10.0 -17.6°
Drops below altitude 10° 03:28:45 10° 123° (ESE) 1,679 9.9 -17.3°
Sets 03:31:40 0° 150° (SSE) 2,562 10.5 -16.8°
